TimeEDT,TemperatureF,Dew PointF,Humidity,Sea Level PressureIn,VisibilityMPH,Wind Direction,Wind SpeedMPH,Gust SpeedMPH,PrecipitationIn,Events,Conditions,WindDirDegrees,DateUTC
12:53 AM,46.9,34.0,61,29.69,10.0,West,8.1,-,N/A,,Clear,260,2012-10-30 04:53:00
1:53 AM,46.9,32.0,56,29.67,10.0,West,13.8,-,N/A,,Clear,260,2012-10-30 05:53:00
2:53 AM,46.9,30.0,52,29.66,10.0,West,12.7,-,N/A,,Clear,260,2012-10-30 06:53:00
3:53 AM,46.0,28.0,50,29.65,10.0,West,15.0,-,N/A,,Scattered Clouds,260,2012-10-30 07:53:00
4:53 AM,46.0,27.0,47,29.65,10.0,West,12.7,23.0,N/A,,Mostly Cloudy,260,2012-10-30 08:53:00
5:53 AM,46.0,26.1,46,29.66,10.0,West,15.0,-,N/A,,Mostly Cloudy,260,2012-10-30 09:53:00
6:53 AM,46.0,27.0,47,29.66,10.0,West,18.4,-,N/A,,Mostly Cloudy,270,2012-10-30 10:53:00
7:53 AM,45.0,28.0,52,29.67,10.0,West,12.7,-,N/A,,Scattered Clouds,260,2012-10-30 11:53:00
8:53 AM,46.9,28.0,48,29.68,10.0,West,16.1,-,N/A,,Scattered Clouds,260,2012-10-30 12:53:00
9:53 AM,50.0,30.0,46,29.68,10.0,West,16.1,27.6,N/A,,Scattered Clouds,270,2012-10-30 13:53:00
10:53 AM,53.1,30.0,41,29.68,10.0,West,20.7,28.8,N/A,,Scattered Clouds,270,2012-10-30 14:53:00
11:53 AM,57.0,28.9,34,29.68,10.0,West,18.4,33.4,N/A,,Scattered Clouds,270,2012-10-30 15:53:00
12:53 PM,59.0,26.1,28,29.65,10.0,West,19.6,28.8,N/A,,Scattered Clouds,280,2012-10-30 16:53:00
1:53 PM,62.1,24.1,23,29.63,10.0,WNW,21.9,32.2,N/A,,Scattered Clouds,300,2012-10-30 17:53:00
2:53 PM,63.0,23.0,22,29.63,10.0,West,17.3,29.9,N/A,,Partly Cloudy,280,2012-10-30 18:53:00
3:53 PM,62.1,21.0,21,29.64,10.0,West,23.0,34.5,N/A,,Scattered Clouds,260,2012-10-30 19:53:00
4:53 PM,62.1,18.0,18,29.65,10.0,West,19.6,32.2,N/A,,Scattered Clouds,280,2012-10-30 20:53:00
5:53 PM,59.0,21.0,23,29.68,10.0,West,16.1,21.9,N/A,,Scattered Clouds,280,2012-10-30 21:53:00
6:53 PM,54.0,26.1,34,29.70,10.0,West,10.4,-,N/A,,Scattered Clouds,270,2012-10-30 22:53:00
7:53 PM,51.1,25.0,36,29.74,10.0,West,6.9,-,N/A,,Scattered Clouds,260,2012-10-30 23:53:00
8:53 PM,48.0,28.0,46,29.77,10.0,West,6.9,-,N/A,,Scattered Clouds,270,2012-10-31 00:53:00
9:53 PM,48.9,26.1,41,29.80,10.0,West,8.1,-,N/A,,Scattered Clouds,270,2012-10-31 01:53:00
10:53 PM,48.0,26.1,42,29.82,10.0,West,8.1,-,N/A,,Scattered Clouds,270,2012-10-31 02:53:00
11:53 PM,48.9,24.1,38,29.82,10.0,West,10.4,-,N/A,,Scattered Clouds,270,2012-10-31 03:53:00